TimeEDT,TemperatureF,Dew PointF,Humidity,Sea Level PressureIn,VisibilityMPH,Wind Direction,Wind SpeedMPH,Gust SpeedMPH,PrecipitationIn,Events,Conditions,WindDirDegrees,DateUTC
12:56 AM,48.0,32.0,54,29.94,10.0,SSE,4.6,-,N/A,,Overcast,160,2013-03-31 04:56:00
1:56 AM,46.0,30.9,56,29.91,10.0,SSE,4.6,-,N/A,,Mostly Cloudy,150,2013-03-31 05:56:00
2:56 AM,46.0,33.1,61,29.89,10.0,SSE,5.8,-,N/A,,Mostly Cloudy,150,2013-03-31 06:56:00
3:56 AM,48.0,34.0,58,29.87,10.0,SSW,4.6,-,N/A,,Overcast,200,2013-03-31 07:56:00
4:56 AM,46.9,35.1,63,29.85,10.0,SSW,5.8,-,N/A,,Overcast,210,2013-03-31 08:56:00
5:56 AM,48.0,36.0,63,29.83,10.0,South,6.9,-,N/A,,Overcast,190,2013-03-31 09:56:00
6:56 AM,46.9,39.9,77,29.82,10.0,South,8.1,-,0.00,Rain,Light Rain,190,2013-03-31 10:56:00
7:56 AM,46.0,41.0,83,29.82,8.0,SSW,3.5,-,0.00,,Overcast,210,2013-03-31 11:56:00
8:56 AM,46.9,41.0,80,29.82,9.0,SW,4.6,-,0.00,,Overcast,230,2013-03-31 12:56:00
9:56 AM,46.9,41.0,80,29.81,6.0,SSW,6.9,-,0.00,Rain,Light Rain,210,2013-03-31 13:56:00
10:56 AM,48.0,42.1,80,29.81,7.0,SW,8.1,-,0.00,,Overcast,230,2013-03-31 14:56:00
11:56 AM,48.9,43.0,80,29.82,6.0,WSW,12.7,-,0.00,Rain,Light Rain,250,2013-03-31 15:56:00
12:29 PM,50.0,44.6,82,29.81,7.0,West,12.7,-,0.00,,Overcast,270,2013-03-31 16:29:00
12:56 PM,50.0,44.1,80,29.81,7.0,West,13.8,-,0.00,,Overcast,260,2013-03-31 16:56:00
1:56 PM,48.9,43.0,80,29.81,8.0,West,12.7,-,N/A,,Overcast,260,2013-03-31 17:56:00
2:25 PM,48.2,42.8,82,29.80,7.0,WSW,16.1,-,N/A,,Overcast,250,2013-03-31 18:25:00
2:56 PM,51.1,44.1,77,29.79,7.0,West,16.1,21.9,N/A,,Mostly Cloudy,260,2013-03-31 18:56:00
3:12 PM,53.6,44.6,72,29.78,9.0,West,15.0,24.2,N/A,,Mostly Cloudy,260,2013-03-31 19:12:00
3:50 PM,55.4,41.0,58,29.77,10.0,West,17.3,24.2,N/A,,Scattered Clouds,260,2013-03-31 19:50:00
3:56 PM,55.0,41.0,59,29.77,10.0,WSW,18.4,-,N/A,,Scattered Clouds,250,2013-03-31 19:56:00
4:56 PM,57.0,39.0,51,29.77,10.0,WSW,21.9,25.3,N/A,,Scattered Clouds,250,2013-03-31 20:56:00
5:56 PM,55.9,37.0,49,29.76,10.0,WSW,16.1,-,N/A,,Scattered Clouds,250,2013-03-31 21:56:00
6:56 PM,55.0,37.0,51,29.78,10.0,West,18.4,27.6,N/A,,Scattered Clouds,260,2013-03-31 22:56:00
7:56 PM,53.1,37.0,55,29.78,10.0,SW,12.7,-,N/A,,Scattered Clouds,220,2013-03-31 23:56:00
8:56 PM,51.8,37.4,58,29.77,10.0,SW,11.5,-,N/A,,Scattered Clouds,220,2013-04-01 00:56:00
9:56 PM,48.9,42.1,77,29.81,10.0,West,19.6,24.2,0.00,Rain,Light Rain,280,2013-04-01 01:56:00
10:56 PM,48.9,42.1,77,29.80,10.0,WSW,17.3,-,0.01,,Overcast,250,2013-04-01 02:56:00
11:56 PM,46.9,41.0,80,29.80,10.0,West,16.1,-,N/A,,Clear,260,2013-04-01 03:56:00